Location: ?
(35.4554°N, 139.3092°E)
Time: 21:40:52
(UTC+00:00)

Cosmos 2278 Rocket - Pass Details

Date: 21 April 2021
Orbit: 842 x 844 km, 71.0° (Epoch: 10 May)

Event Time Altitude Azimuth Distance (km) Brightness Sun altitude
Exits shadow 16:46:34 26° 338° (NNW) 1,593 3.8 -34.0°
Drops below altitude 10° 16:49:36 10° 3° (N) 2,467 5.2 -33.6°
Sets 16:52:16 0° 13° (NNE) 3,405 6.2 -33.3°
